Flag for United Kingdom Weather past 2 weeks in Slough, England, United Kingdom

Now
45 °F

Scattered clouds.


Feels Like: 36 °F
Forecast: N/A
Wind: 21 mph from West

Location: London City Airport

Current Time: Jan 29, 2015 at 2:33:57 PM

Latest Report: Jan 29, 2015 at 2:20 PM


Visibility: N/A

Pressure: 28.88 "Hg

Humidity: 57%

Dew point: 30 °F

Location of SloughLocation

Historic Weather in Slough — Graph

°F

Slough temperature yesterday

Maximum temperature yesterday: 52 °F (at 10:50 AM)
Minimum temperature yesterday: 37 °F (at 11:50 PM)
Average temperature yesterday: 45 °F

Past Weeks' High & Low Weather Summary

 TemperatureHumidityPressure
High52 °F (Jan 15, 1:20 AM)100% (Jan 20, 7:20 AM)30.48 "Hg (Jan 20, 7:20 AM)
Low28 °F (Jan 23, 6:50 AM)49% (Jan 15, 8:20 PM)28.94 "Hg (Jan 29, 1:20 PM)
Average41 °F75%29.92 "Hg
* Reported Jan 14 1:20 PM — Jan 29 1:20 PM, Slough, Weather by CustomWeather, © 2014

Note: Actual official high and low records may vary slightly from our data, if they occured in-between our weather recording intervals... More about our weather records

Advertising

Slough weather history for previous 24 hours

 ConditionsComfort  
Time TempWeatherWind HumidityBarometerVisibility
1:20 PM
Jan 29
43 °FScattered clouds.18 mph61%28.94 "HgN/A
12:50 PM43 °FPartly sunny.18 mph61%28.97 "HgN/A
12:20 PM43 °FPartly sunny.20 mph61%29.00 "HgN/A
11:50 AM43 °FPartly sunny.21 mph66%29.03 "HgN/A
11:20 AM43 °FScattered clouds.23 mph61%29.06 "HgN/A
10:50 AM43 °FPassing clouds.17 mph66%29.09 "HgN/A
10:20 AM41 °FPassing clouds.16 mph70%29.12 "HgN/A
9:50 AM41 °FPassing clouds.17 mph70%29.12 "HgN/A
9:20 AM39 °FScattered clouds.15 mph75%29.15 "HgN/A
8:50 AM37 °FPassing clouds.16 mph81%29.18 "HgN/A
8:20 AM37 °FPassing clouds.14 mph81%29.21 "HgN/A
7:50 AM37 °FPassing clouds.13 mph81%29.21 "HgN/A
7:20 AM37 °FClear.14 mph81%29.24 "Hg10 mi
6:50 AM37 °FClear.14 mph81%29.24 "Hg10 mi
6:20 AM37 °FClear.14 mph81%29.27 "Hg10 mi
5:50 AM37 °FChilly.17 mph75%29.30 "HgN/A
5:20 AM37 °FChilly.17 mph75%29.30 "HgN/A
4:50 AM37 °FChilly.17 mph75%29.33 "HgN/A
4:20 AM37 °FChilly.17 mph75%29.33 "HgN/A
3:50 AM37 °FPassing clouds.17 mph75%29.36 "HgN/A
3:20 AM37 °FChilly.20 mph75%29.36 "HgN/A
2:50 AM37 °FChilly.18 mph75%29.39 "HgN/A
2:20 AM37 °FChilly.18 mph75%29.42 "HgN/A
1:50 AM37 °FPassing clouds.18 mph75%29.42 "HgN/A
1:20 AM37 °FPassing clouds.18 mph81%29.42 "HgN/A
12:50 AM37 °FPassing clouds.16 mph75%29.45 "HgN/A
12:20 AM37 °FPassing clouds.16 mph75%29.47 "HgN/A
11:50 PM
Jan 28
37 °FChilly.17 mph75%29.47 "HgN/A
11:20 PM39 °FChilly.17 mph70%29.50 "HgN/A
10:50 PM39 °FChilly.18 mph65%29.50 "HgN/A
10:20 PM39 °FClear.17 mph65%29.53 "Hg10 mi
9:20 PM39 °FClear.18 mph65%29.56 "Hg10 mi
8:50 PM39 °FClear.18 mph65%29.56 "Hg10 mi
8:20 PM39 °FClear.15 mph61%29.56 "Hg10 mi
7:50 PM41 °FClear.15 mph57%29.59 "Hg10 mi
7:20 PM41 °FClear.17 mph57%29.59 "Hg10 mi
6:50 PM41 °FClear.18 mph53%29.59 "Hg10 mi
6:20 PM41 °FClear.21 mph53%29.59 "Hg10 mi
5:50 PM41 °FClear.18 mph53%29.59 "Hg10 mi
5:20 PM43 °FClear.23 mph53%29.59 "Hg10 mi
4:50 PM43 °FPassing clouds.23 mph53%29.59 "HgN/A
4:20 PM43 °FPassing clouds.20 mph53%29.56 "HgN/A
3:50 PM43 °FPassing clouds.21 mph57%29.56 "HgN/A
3:20 PM45 °FPassing clouds.25 mph53%29.56 "HgN/A
2:50 PM45 °FPassing clouds.21 mph57%29.56 "HgN/A
2:20 PM45 °FPassing clouds.25 mph61%29.53 "HgN/A
Weather by CustomWeather, © 2014

See weather overviewHow to use our weather pages